Theta_e
311 312 312 313 314 315 316 317 318 317 316 312 310 313 305 303 300 307 314 315 312 303 296 299 298 296 300 303 300 299 297 297 298 296 295 295 295 295 295 294 292 292 291 289 289 290 286 286 286 285 287 288 289 290 291 292 291 293 287 290 288 292 283 279 280 280 280 283 284 283 283 285 286 285 282 284 285 284 285 283 280 279 275 276 274 276 281
309 310 310 311 312 313 313 315 317 317 315 313 310 307 303 304 302 302 313 315 311 300 291 292 294 297 300 300 300 300 298 298 296 298 298 296 295 295 293 294 297 294 293 291 290 293 288 290 288 286 286 287 288 289 290 293 291 291 289 290 292 286 286 285 275 275 277 279 284 284 285 285 282 281 281 284 284 281 278 277 275 277 277 279 279 277 283
308 309 309 310 311 310 310 311 313 315 316 316 312 304 303 300 299 300 304 311 309 297 299 296 295 296 296 297 296 297 297 298 300 299 297 298 296 295 294 297 296 294 294 293 292 293 293 287 290 288 287 289 289 290 291 293 292 292 291 295 296 290 286 285 279 277 275 274 275 277 280 283 283 281 281 283 285 281 280 280 276 278 277 281 279 282 285
308 308 308 309 309 309 308 308 308 310 313 316 312 304 300 297 291 296 299 303 303 303 304 301 297 295 295 294 296 298 296 295 298 301 299 300 297 298 295 295 298 294 293 291 291 291 292 291 288 288 286 287 288 288 288 291 291 292 294 292 293 287 285 287 286 284 282 281 278 282 283 281 282 280 283 283 283 284 283 277 276 279 279 281 284 284 282
307 307 308 308 307 307 308 307 307 307 308 313 309 298 299 297 294 292 291 298 299 297 299 298 299 295 298 291 295 294 295 296 294 301 296 299 299 296 296 295 294 292 293 292 291 292 291 289 288 288 286 286 287 288 288 288 290 293 292 292 289 285 285 286 286 284 284 281 283 282 286 284 285 283 281 282 282 281 282 282 280 282 279 279 286 284 283
307 306 306 306 306 306 307 307 307 306 307 306 307 297 296 292 293 297 298 293 289 293 294 298 297 298 298 294 297 294 294 295 292 296 298 297 300 295 293 295 297 296 294 294 288 290 290 289 289 287 287 286 289 288 289 289 290 291 290 289 290 286 286 287 286 285 284 282 283 285 286 285 285 285 285 283 283 281 282 283 284 283 283 282 286 284 284
306 306 305 305 305 305 305 306 306 307 306 305 303 296 294 295 291 293 296 292 292 294 295 298 297 296 297 295 296 293 293 293 296 294 291 294 294 298 290 293 295 296 297 295 291 291 287 287 290 288 287 287 287 286 288 289 287 288 288 289 286 288 286 287 286 287 287 284 284 284 285 284 284 284 285 286 284 283 284 284 284 283 285 286 285 282 283
307 306 305 305 305 303 304 305 305 305 306 303 298 294 293 290 290 287 293 292 289 291 293 295 296 293 296 292 294 295 294 293 295 293 294 289 293 298 294 295 296 296 295 295 292 293 294 293 289 290 289 287 287 288 288 286 286 287 288 288 288 289 286 288 286 285 286 284 283 283 284 285 284 284 283 283 281 282 283 284 284 283 283 284 283 282 283
307 306 305 305 304 304 303 303 303 304 305 298 294 292 293 292 293 295 291 287 288 289 290 293 293 292 293 292 292 294 295 294 297 294 296 296 292 294 294 296 295 295 295 295 295 297 296 292 293 293 293 289 291 290 287 290 286 287 287 287 288 288 285 283 284 284 284 283 283 282 282 282 281 282 284 280 281 280 281 280 283 283 282 283 282 281 283
308 307 306 305 305 304 303 303 302 303 305 297 295 291 294 293 293 294 294 286 291 287 287 290 291 287 291 293 292 292 294 295 297 291 294 293 294 296 297 297 295 291 293 293 296 297 295 293 292 294 293 294 292 293 290 292 289 287 287 286 286 287 284 282 282 282 283 279 282 281 280 282 281 282 284 283 285 286 281 284 283 285 286 282 280 283 286
307 307 306 305 304 304 304 303 302 302 301 295 292 291 292 292 292 292 291 286 285 285 287 286 286 289 291 293 292 292 291 292 294 291 288 292 292 291 295 296 294 290 292 293 293 293 292 291 289 291 291 290 289 290 292 290 291 290 288 286 285 286 285 284 285 280 278 273 278 280 280 275 278 284 287 288 285 285 281 281 282 283 285 284 284 283 279
307 307 307 306 305 305 304 303 302 302 302 297 296 292 294 295 294 291 286 285 285 286 286 285 286 287 287 290 292 291 290 291 291 294 289 288 289 289 294 295 295 288 290 291 293 293 292 292 292 291 289 288 288 288 290 290 288 291 291 288 285 285 285 284 285 280 275 276 279 277 272 277 282 276 277 276 283 286 285 285 284 283 283 280 278 277 278
306 307 307 307 305 305 304 304 303 301 300 296 296 292 293 295 294 290 287 285 284 284 284 285 287 287 288 289 289 289 291 292 292 293 292 290 288 288 289 291 291 290 292 292 294 293 288 284 284 285 284 285 286 286 285 287 285 287 288 290 287 285 285 282 279 277 275 273 277 271 275 279 277 277 276 277 279 280 281 280 282 282 282 282 282 282 282
305 306 306 306 306 305 304 304 303 302 300 299 295 294 293 294 292 289 288 285 285 285 285 285 285 285 286 287 288 288 290 289 288 290 290 290 290 290 288 288 288 292 291 294 290 288 285 284 282 283 282 283 283 283 282 282 281 283 285 285 286 287 286 284 280 281 275 276 275 278 281 280 278 273 275 277 279 278 279 275 278 283 281 280 281 283 283
305 305 306 306 306 306 305 304 304 302 300 299 294 293 293 293 295 292 289 287 284 285 285 284 285 286 286 286 288 285 285 285 286 285 284 285 285 283 284 285 286 290 291 291 285 285 283 282 277 278 277 278 276 278 281 278 279 280 281 282 284 286 285 284 282 280 281 275 274 272 274 274 280 279 276 280 280 282 281 280 276 276 276 281 282 282 283
304 304 305 305 306 306 305 305 304 303 300 299 293 292 292 293 293 293 290 287 286 281 284 288 287 287 285 285 287 286 285 285 285 285 284 284 283 285 285 285 286 287 288 287 285 285 283 280 276 278 274 276 278 276 274 278 277 278 280 282 283 283 284 284 284 280 278 276 275 275 274 277 278 278 275 275 275 279 280 276 273 279 276 280 281 281 281
303 304 304 305 305 306 306 305 305 304 301 299 290 291 290 292 290 290 288 286 287 284 283 284 286 286 285 284 286 285 285 284 286 283 282 283 282 282 284 285 286 286 286 286 284 283 280 277 277 277 276 278 277 276 276 274 275 273 279 281 281 281 280 281 279 278 278 278 276 275 279 277 278 274 274 276 277 280 279 268 270 276 275 278 280 280 280
303 303 304 304 305 305 306 306 305 304 301 300 293 290 289 292 291 291 287 286 285 283 283 284 286 285 284 285 284 285 285 284 284 285 282 282 280 281 282 285 284 286 287 285 285 282 281 278 278 278 278 280 279 281 273 277 272 273 273 277 276 278 277 279 277 280 279 280 277 276 276 279 274 274 275 276 276 279 271 271 276 277 275 278 279 279 277
302 302 303 303 304 305 305 306 305 305 303 300 294 292 290 291 290 291 287 285 283 281 284 283 284 285 285 285 284 284 284 285 285 283 280 281 281 283 284 284 286 283 286 282 285 281 281 278 279 278 277 276 279 276 280 276 274 276 278 275 274 275 274 274 277 276 278 279 277 277 278 280 276 274 277 277 278 269 271 279 280 278 276 276 278 277 275
302 302 302 303 303 304 305 305 305 305 304 300 296 291 291 291 291 291 288 283 283 281 283 282 284 283 284 284 282 282 281 283 283 284 283 281 283 285 285 281 285 282 281 284 280 282 281 279 279 276 273 277 277 280 270 273 277 274 277 279 278 277 275 273 276 276 274 274 275 273 272 278 277 279 277 278 275 276 281 277 277 277 277 276 275 276 276
301 302 302 302 303 303 304 305 305 305 305 301 299 293 290 292 291 289 288 286 283 278 281 284 283 285 284 284 285 286 285 284 284 283 284 283 286 286 279 280 283 282 279 283 279 280 280 275 274 275 278 279 279 278 273 273 272 276 277 276 275 280 273 272 276 280 273 275 272 274 281 278 280 280 277 279 281 282 278 279 276 276 275 277 277 275 275
301 301 301 302 302 303 303 303 304 304 304 303 300 295 290 292 291 292 289 287 281 276 279 283 284 284 285 286 286 287 286 286 286 286 283 282 285 284 282 283 284 282 281 280 276 274 274 272 273 271 274 272 272 273 274 271 269 273 270 274 273 281 277 278 276 279 276 275 279 278 277 280 281 282 280 282 281 279 279 280 280 278 276 275 276 277 276
301 302 301 301 302 302 303 303 303 303 304 304 300 295 292 290 289 293 291 286 285 285 284 282 284 285 288 287 286 286 285 286 285 284 285 284 281 281 280 282 282 282 279 282 283 281 279 274 273 277 269 273 277 270 269 272 270 271 272 276 278 276 277 277 275 274 277 276 278 276 276 278 280 281 280 280 279 276 277 278 277 277 277 276 276 276 276
301 302 301 301 301 302 302 303 303 304 304 304 301 295 293 291 291 291 289 288 284 281 284 283 281 279 282 283 286 286 286 284 287 285 286 287 282 279 280 281 283 280 277 280 281 281 276 271 273 273 273 276 274 269 273 270 270 272 272 273 275 274 275 275 275 276 274 272 276 275 277 278 279 281 279 278 278 277 275 275 277 278 276 276 276 276 276
299 301 300 300 301 301 301 302 302 303 304 303 301 298 292 291 292 291 287 282 282 282 278 280 281 285 284 285 286 283 284 286 288 285 284 285 285 282 281 283 283 283 281 280 279 277 273 275 273 271 274 277 279 271 276 275 273 277 269 275 274 274 277 274 274 274 275 274 275 275 274 275 277 278 278 278 277 276 276 277 276 275 275 275 275 273 272
300 300 300 300 301 301 301 301 302 302 302 303 301 293 292 290 293 293 290 289 287 284 279 277 278 284 282 284 283 285 285 286 285 284 284 284 285 285 282 281 281 282 280 281 280 279 272 268 264 265 274 275 280 270 267 278 276 277 277 277 278 276 278 267 273 272 273 273 273 273 273 275 276 276 277 278 278 277 276 276 275 274 274 273 273 274 274
300 300 300 300 300 300 301 301 301 302 302 303 300 296 294 293 293 292 289 288 285 280 282 278 280 281 282 282 284 282 284 285 284 284 283 283 283 283 282 282 281 281 280 278 277 273 268 267 271 272 268 269 271 266 271 271 273 270 268 273 275 274 272 273 272 268 269 270 272 274 268 267 275 276 278 278 278 277 276 275 274 274 275 274 274 273 272
299 299 300 300 301 300 300 300 301 301 302 301 299 296 295 292 291 293 292 290 289 279 279 277 278 280 283 278 283 283 283 285 284 283 282 281 282 283 283 282 281 280 280 279 275 274 272 275 272 271 269 268 270 267 274 272 272 267 268 272 276 276 276 275 272 273 269 274 275 276 277 275 275 277 279 279 277 276 276 276 276 276 276 275 274 274 272
299 299 299 299 300 300 300 300 301 302 302 300 293 292 291 293 292 294 294 293 286 281 279 277 275 273 274 279 285 283 283 284 283 283 281 281 282 282 282 282 282 281 279 278 278 275 271 271 275 270 267 275 270 261 267 265 266 267 274 276 275 277 277 278 276 275 274 275 276 277 276 276 275 274 275 278 278 277 277 277 277 276 275 274 275 276 276
299 299 299 300 300 300 300 300 301 301 300 293 290 287 285 287 293 292 294 293 290 287 282 279 275 278 279 279 278 280 281 282 282 282 281 280 280 281 281 281 281 283 280 279 278 271 275 273 275 276 275 278 270 266 266 261 262 270 276 275 276 277 276 277 275 276 275 274 275 277 277 277 277 275 274 275 275 276 277 277 277 276 275 274 274 274 274
298 299 299 300 300 300 300 300 301 301 299 291 289 282 282 280 287 294 295 293 292 288 284 284 279 280 273 275 278 278 280 281 279 280 280 280 280 280 281 281 281 283 279 278 276 275 277 268 274 274 277 279 276 267 267 265 263 265 275 276 276 277 277 276 275 274 275 274 274 274 275 275 275 274 275 274 272 274 275 274 276 276 276 272 273 275 275
298 298 298 299 300 300 300 301 300 299 296 290 287 284 284 285 289 293 296 294 292 287 284 279 279 279 277 282 279 281 282 281 281 280 280 281 277 280 279 282 280 282 283 274 275 274 269 275 274 275 275 280 276 262 265 265 268 272 277 275 277 276 276 275 276 275 275 275 275 274 274 275 274 276 277 277 275 274 275 276 275 274 274 274 273 271 272
298 298 299 299 299 299 300 300 301 299 293 295 296 292 292 295 297 297 296 292 289 285 286 282 276 279 279 278 281 278 279 278 277 279 275 281 277 278 274 281 276 276 287 278 271 270 272 274 275 273 276 277 272 270 266 268 273 277 278 276 275 275 275 276 276 276 277 276 278 276 274 277 276 276 277 278 275 273 273 274 274 271 270 269 270 272 270
297 298 298 299 299 299 299 300 301 299 297 291 285 287 286 295 297 297 294 290 286 285 285 279 277 276 274 278 275 277 282 278 277 280 273 279 278 278 273 278 276 275 273 275 274 273 269 274 269 269 274 270 272 269 266 272 277 277 278 278 276 275 274 274 274 275 276 275 276 278 279 279 278 275 274 274 274 271 272 271 270 270 271 270 271 273 273
299 298 298 299 299 299 299 298 295 290 286 287 287 288 292 297 297 297 293 289 283 280 280 278 281 275 272 269 268 275 281 279 275 279 276 279 282 275 276 273 276 275 274 280 269 270 272 273 274 271 267 270 270 267 270 274 276 277 277 278 276 275 274 275 275 276 274 273 274 275 276 274 274 275 276 275 274 270 270 269 270 272 271 271 272 272 271
298 298 299 299 299 298 295 295 288 285 284 285 285 293 297 297 297 292 287 286 285 281 280 278 281 276 278 271 267 270 283 277 279 279 279 280 277 280 278 276 273 278 280 276 271 276 271 277 274 266 274 272 269 273 275 277 277 278 278 278 277 276 277 278 279 274 272 273 273 274 274 273 273 275 276 275 273 268 270 270 267 267 271 273 273 273 269
298 298 298 298 294 290 287 286 287 287 286 290 294 298 297 293 289 288 286 286 286 286 280 280 277 274 278 271 269 270 279 273 282 277 280 277 275 282 279 278 273 280 277 275 276 275 277 282 273 271 275 273 274 279 279 279 279 278 278 279 278 277 278 278 277 273 268 268 268 271 272 271 272 272 273 273 273 270 267 270 271 270 270 271 273 273 273
298 298 291 284 284 282 280 282 282 289 297 296 294 289 285 287 281 283 283 281 283 284 279 281 277 271 270 273 268 279 280 274 282 275 279 281 278 275 280 278 275 281 269 274 277 282 277 275 274 274 275 280 280 280 280 280 280 280 277 277 277 278 278 277 275 274 270 270 269 269 267 266 268 270 271 273 273 271 272 274 274 273 273 273 274 274 271
295 287 285 285 283 279 280 280 292 297 293 290 287 282 279 281 279 276 276 279 281 276 280 279 275 273 273 273 274 283 277 276 277 278 274 281 275 271 279 271 277 278 270 274 274 283 271 274 275 275 273 276 277 279 282 281 278 277 278 279 279 278 277 275 275 277 276 277 278 278 276 275 274 274 273 272 273 273 273 272 271 271 272 272 272 270 267
285 283 282 283 280 279 286 292 296 291 287 282 281 279 274 278 276 271 279 273 273 276 280 273 279 275 277 276 276 275 284 278 274 275 276 277 282 271 274 273 275 275 267 272 271 277 271 269 275 273 272 276 277 280 280 276 275 277 276 278 277 276 274 275 274 275 275 276 275 275 272 272 274 276 275 272 272 272 271 269 270 268 267 270 267 266 267
284 282 280 278 282 286 287 286 284 283 281 277 276 276 274 271 271 272 274 271 271 271 276 277 275 272 277 274 276 274 281 280 276 276 273 270 276 275 268 268 274 266 266 269 271 264 265 267 272 272 273 278 279 277 274 274 277 276 274 273 273 273 272 272 272 270 270 273 274 274 271 269 267 269 268 267 267 269 268 265 263 262 262 263 263 262 255
284 284 284 285 285 286 285 282 280 277 276 276 273 270 272 271 272 268 271 269 270 271 272 276 274 275 272 276 274 277 275 277 275 275 271 267 277 269 266 268 269 265 264 270 268 264 268 267 268 269 276 279 277 272 270 272 270 270 269 269 270 270 270 270 270 269 268 272 272 268 259 257 255 253 252 256 263 261 259 258 257 254 254 251 251 252 253
292 289 288 283 282 280 279 276 276 276 272 270 269 267 269 266 269 269 267 269 266 267 272 274 273 281 277 276 274 274 276 280 277 273 270 270 276 271 266 268 268 264 267 264 264 265 264 264 265 272 278 273 267 265 263 263 263 263 263 262 261 260 262 265 267 265 254 256 255 254 252 251 250 250 250 250 251 250 249 250 251 250 251 251 251 251 251
287 286 281 278 279 277 278 270 277 272 269 269 268 264 266 265 266 263 262 266 264 266 272 273 273 276 272 276 276 274 273 276 278 268 268 272 269 268 270 265 267 270 269 263 265 263 265 262 268 272 267 264 263 258 257 258 256 258 262 261 259 258 260 260 261 261 258 254 252 251 251 251 250 250 249 247 250 252 248 249 250 251 251 251 252 251 251
281 277 276 275 273 276 274 267 273 269 266 268 271 264 265 266 268 268 269 269 269 271 272 273 275 274 273 271 272 274 278 270 277 271 269 271 266 270 267 266 265 262 263 265 264 263 262 263 268 265 264 263 259 255 254 254 255 254 255 257 258 256 256 257 256 254 253 253 251 251 251 249 251 250 248 249 249 248 250 250 250 252 252 251 252 252 252
278 277 275 271 269 272 269 267 267 264 267 270 265 265 267 269 271 270 268 264 267 269 273 274 274 275 270 270 274 274 272 270 271 271 272 269 266 265 268 267 266 264 265 264 262 263 265 268 268 263 256 253 254 253 252 252 252 252 254 255 255 253 252 252 251 252 252 252 252 251 250 250 249 250 249 248 248 249 249 249 250 252 252 252 250 250 250
276 275 272 272 269 270 269 265 265 267 266 264 264 266 269 270 267 270 266 267 273 273 274 272 274 274 273 269 269 268 267 268 269 271 272 267 267 267 271 266 266 267 264 262 262 261 262 266 262 254 252 252 251 251 250 251 251 250 251 251 251 251 251 251 251 251 252 252 251 251 250 249 249 249 250 250 248 247 248 248 249 251 251 250 250 251 250
273 275 272 268 268 269 266 265 263 262 261 262 262 262 264 267 272 268 266 265 274 275 275 274 272 271 271 270 271 271 266 265 268 268 270 269 270 264 265 265 263 265 262 261 265 266 265 260 255 253 252 251 250 250 250 250 250 249 249 249 249 249 250 249 249 249 249 249 249 249 249 248 248 249 249 248 248 248 247 247 248 248 249 249 248 249 249
275 272 270 267 266 264 264 264 266 266 261 260 259 263 267 271 268 267 265 266 275 274 273 274 270 270 268 271 269 271 269 272 266 268 269 266 265 264 264 260 262 260 263 264 263 263 259 254 253 251 250 250 251 250 249 249 249 249 249 249 249 248 249 248 248 248 248 249 248 249 248 249 249 249 248 249 248 247 247 247 247 247 248 248 248 248 249
273 270 269 266 264 264 261 261 267 263 259 259 261 263 263 268 267 265 264 267 268 273 273 276 274 272 268 268 266 268 267 268 266 268 263 264 264 264 262 257 260 261 260 259 259 256 252 251 252 250 249 249 250 249 248 248 249 249 248 248 248 248 248 248 249 248 247 247 248 248 249 250 250 249 249 248 248 248 248 247 246 246 245 246 247 248 248
272 268 265 265 264 265 265 265 267 261 260 263 263 263 262 265 265 264 263 267 269 268 264 263 265 264 264 263 265 264 266 270 268 265 264 261 261 261 262 261 261 260 259 256 253 253 251 251 250 249 248 247 248 249 248 249 248 248 248 247 248 248 247 246 247 248 247 247 249 249 248 248 248 248 248 249 250 250 249 249 247 245 245 245 246 248 249
268 266 265 266 265 264 263 264 263 262 261 260 261 260 263 263 261 261 262 264 269 271 265 260 262 263 263 263 264 263 264 264 267 267 262 262 260 258 256 257 259 257 255 255 255 253 251 250 249 248 247 247 248 247 246 246 245 245 245 245 245 246 247 248 247 246 246 247 246 247 247 247 248 249 251 251 251 250 249 247 246 245 245 245 245 245 246
Wind_Speed
5 4 4 4 4 5 8 13 14 12 15 12 10 11 9 12 11 3 23 24 27 20 17 14 13 13 15 5 0 4 3 5 5 9 4 6 3 2 3 6 6 5 4 2 6 11 6 11 12 5 9 6 9 3 11 12 14 8 2 5 2 5 3 3 2 2 3 3 2 1 0 2 1 2 2 5 9 7 8 5 5 7 2 3 1 4 5
4 4 5 5 5 4 5 7 11 13 15 8 1 10 7 10 7 3 13 26 21 22 20 19 18 16 12 10 12 4 4 7 8 12 10 8 5 5 4 0 4 2 3 3 9 9 5 7 10 4 3 4 3 4 6 14 9 9 8 10 8 6 4 8 3 1 2 4 2 1 1 1 3 3 4 3 2 2 2 5 1 0 7 7 8 16 7
4 2 3 4 5 7 8 6 3 10 15 11 6 4 1 2 2 2 4 12 20 21 17 19 18 18 18 16 17 11 4 6 12 11 9 5 3 4 5 4 5 3 3 5 1 8 12 1 8 2 4 4 2 1 12 11 10 3 3 2 9 7 6 11 10 13 10 9 10 10 9 11 2 1 2 6 11 8 4 7 2 7 3 10 6 11 3
5 3 2 4 6 7 8 8 8 6 5 17 9 5 1 3 5 2 6 8 9 12 14 14 14 16 17 16 16 16 14 2 6 12 8 10 4 5 3 2 6 4 5 4 5 7 1 3 3 7 5 2 0 2 2 7 3 1 1 3 10 3 1 9 12 12 13 8 2 1 8 5 8 5 10 10 7 10 8 4 5 12 3 9 12 9 1
4 4 3 2 4 4 3 5 9 7 9 11 9 1 2 1 5 5 6 2 9 6 9 16 14 16 15 14 7 18 19 8 1 10 7 11 11 4 4 4 7 5 8 9 7 4 4 0 3 6 5 0 1 2 4 4 3 2 4 2 4 2 3 9 8 7 3 4 2 4 8 10 9 9 8 8 10 9 12 12 10 7 5 12 10 7 5
5 4 3 3 3 3 3 4 4 8 8 10 3 3 1 2 2 2 1 3 8 14 11 14 20 18 14 10 5 14 15 13 10 4 6 4 11 8 1 6 17 14 15 10 5 7 9 6 10 3 0 4 0 2 2 3 2 2 2 1 3 4 7 3 6 7 3 2 3 5 3 3 4 9 9 11 12 9 14 13 9 10 11 17 9 8 9
7 5 4 2 2 1 4 4 5 3 6 4 2 3 1 2 1 2 2 2 2 9 3 12 14 20 20 10 15 14 17 19 16 6 3 4 7 18 12 18 18 16 15 13 10 11 8 11 8 5 5 5 4 2 2 1 2 2 2 2 1 2 5 3 3 6 3 3 5 4 7 3 1 5 10 12 13 16 15 15 12 13 12 10 7 5 14
8 7 5 3 2 1 0 2 3 4 8 2 1 1 4 5 5 3 1 2 3 1 2 6 11 13 15 13 15 17 18 20 13 4 10 7 11 12 18 18 16 16 14 15 14 17 20 15 13 9 10 3 3 6 4 4 2 0 4 4 2 5 3 5 4 3 8 4 5 5 6 8 8 10 10 9 2 3 11 11 4 1 6 11 7 10 14
9 9 8 6 3 2 0 1 2 2 5 3 2 1 1 2 2 3 4 2 2 1 1 4 8 9 6 9 5 12 15 18 15 8 3 15 11 12 23 20 9 11 14 16 20 18 15 7 11 12 15 14 7 8 4 7 7 4 3 2 2 4 4 2 3 6 7 4 8 6 2 0 6 13 14 5 5 9 7 6 8 8 12 13 9 11 14
12 10 10 7 5 3 2 0 1 1 4 2 1 2 1 2 1 3 2 3 3 4 1 1 3 8 3 5 4 5 14 5 10 5 1 1 0 6 15 15 9 8 14 20 22 9 6 7 3 3 2 2 4 4 6 10 10 7 9 3 7 5 6 5 4 6 6 2 4 6 3 1 9 22 14 11 15 12 2 7 8 15 16 10 11 18 6
14 13 12 10 8 6 4 2 1 2 1 3 3 2 1 2 3 3 3 4 0 3 5 3 5 1 2 1 3 1 1 2 4 14 2 1 1 3 3 10 11 6 14 7 2 9 11 11 7 7 10 8 6 3 7 5 7 10 10 4 2 5 7 5 4 6 2 3 3 4 4 9 17 2 6 16 18 17 13 12 15 15 12 9 7 5 4
13 15 13 12 9 8 5 4 2 1 1 2 4 3 2 2 5 3 3 4 1 3 4 4 6 2 5 2 3 3 5 5 5 1 3 1 2 5 1 4 8 7 0 5 11 13 10 6 8 7 9 8 7 4 3 6 1 1 6 8 7 9 5 4 3 4 3 3 5 3 11 18 1 4 4 4 4 8 16 17 12 12 11 2 0 3 5
12 12 14 12 11 9 8 7 4 2 2 3 3 4 3 1 4 3 3 2 2 5 4 2 3 3 4 3 4 5 3 1 1 1 3 4 1 2 3 0 3 2 7 10 9 9 7 5 7 5 5 4 5 5 5 1 1 2 0 3 8 8 9 4 2 4 4 4 5 6 9 2 4 5 4 2 6 3 2 4 9 7 9 13 10 8 9
12 10 9 12 12 11 10 9 8 5 4 3 3 3 5 3 5 3 2 2 2 2 2 3 3 5 4 4 4 3 4 3 1 2 4 2 2 0 2 4 4 1 5 6 9 9 5 1 5 3 0 2 2 2 2 6 6 3 2 1 0 10 4 5 5 3 6 5 9 10 4 8 5 1 2 7 7 7 9 8 8 11 10 9 8 10 11
12 11 9 7 12 14 12 11 10 8 6 3 4 3 4 2 4 5 1 2 2 0 3 5 6 6 8 3 3 4 2 2 3 1 3 2 3 2 1 3 4 1 2 4 2 1 3 3 3 4 1 4 5 5 3 2 2 3 4 3 1 2 9 5 6 6 8 5 4 2 2 12 11 5 2 3 3 6 4 3 6 1 5 10 12 12 9
14 12 10 8 9 14 14 13 12 12 10 8 4 3 2 2 4 5 4 3 3 3 6 5 4 5 5 3 6 7 4 4 4 3 2 1 2 2 2 2 2 3 2 3 1 3 2 4 3 6 5 6 1 5 3 4 0 1 3 2 4 4 2 1 9 2 6 5 7 6 8 7 2 3 3 2 2 8 5 2 5 4 10 11 11 10 9
16 14 11 10 9 12 16 16 15 14 14 12 5 4 3 4 3 5 5 1 2 4 3 2 3 4 4 4 2 1 2 3 5 4 3 3 3 2 1 1 1 4 0 3 1 2 1 1 1 1 1 2 5 5 4 2 4 2 3 5 4 3 1 3 2 3 5 6 6 10 4 5 1 4 2 4 4 6 6 1 7 2 7 6 9 11 10
17 16 13 12 11 10 13 18 17 17 16 13 7 4 3 2 3 6 5 4 4 2 3 4 4 3 4 3 4 1 3 4 4 2 3 2 4 2 4 2 3 1 0 5 4 4 4 3 5 4 5 1 1 5 5 7 5 5 7 7 5 3 1 4 11 10 9 9 7 2 6 1 1 4 3 4 2 5 3 10 3 3 7 7 8 8 5
17 16 15 14 13 12 11 14 18 19 18 14 6 5 1 4 4 5 6 3 3 3 2 1 2 2 1 3 3 2 1 1 3 5 3 2 3 3 6 1 1 4 3 5 3 4 6 3 2 2 5 2 1 6 3 6 6 3 8 6 3 1 4 3 1 7 9 8 8 8 4 4 8 1 4 4 4 4 6 3 2 10 7 7 7 7 6
18 17 16 16 15 14 12 11 16 19 19 18 9 4 2 3 3 5 7 5 2 2 3 4 3 5 3 5 5 3 1 1 1 3 5 5 2 9 4 2 2 3 3 2 4 3 4 6 6 2 1 4 5 3 3 2 3 8 4 5 6 10 8 6 9 3 2 2 7 1 9 2 9 10 3 4 5 6 4 3 1 2 6 9 6 7 9
19 18 17 17 16 15 14 13 13 17 21 21 12 5 2 0 1 1 3 7 6 3 2 2 0 4 4 3 4 6 5 5 5 4 2 4 8 6 6 6 8 6 6 7 8 5 4 3 3 3 2 4 4 4 5 3 1 5 3 4 2 3 5 3 5 5 6 8 8 8 3 9 13 15 9 7 6 5 7 7 3 1 5 7 8 6 8
20 20 19 18 17 17 16 15 15 14 18 21 16 4 4 2 2 1 3 5 4 3 2 3 1 1 2 1 2 4 4 3 2 2 5 4 4 3 1 3 6 4 3 3 4 2 2 2 2 3 3 1 4 5 2 5 4 3 5 1 0 5 9 4 7 4 8 7 2 1 1 10 14 4 2 5 5 5 9 7 8 7 5 4 5 9 7
19 18 20 19 18 18 17 17 15 15 15 20 13 6 8 7 4 3 3 4 2 2 1 2 1 1 0 2 3 1 1 1 6 3 2 5 2 1 2 4 3 1 1 0 4 3 4 6 5 4 3 2 8 3 1 3 2 3 7 6 4 2 3 1 4 4 1 1 3 3 2 3 7 5 1 1 4 0 4 6 5 5 6 10 9 7 8
20 18 20 20 20 19 18 17 17 15 14 16 15 8 6 8 9 8 4 3 2 2 1 1 1 3 5 6 4 2 4 2 4 3 1 1 4 2 2 2 1 2 1 2 0 4 4 3 3 1 3 4 6 3 8 5 5 2 2 3 1 2 2 1 3 3 1 4 3 3 4 3 8 9 1 1 0 4 3 4 6 6 7 8 4 5 8
21 19 20 21 20 20 19 18 18 17 15 14 14 5 8 3 4 9 10 7 4 5 4 1 6 5 3 1 4 3 5 4 3 5 3 3 2 3 3 1 2 3 2 3 1 7 2 4 1 1 4 5 6 4 2 5 3 5 3 4 1 3 4 3 2 1 4 3 3 2 2 3 3 4 4 5 4 3 4 3 2 3 4 4 6 3 3
20 20 20 21 19 19 19 18 18 17 16 15 14 8 9 9 9 5 5 4 3 3 2 2 3 2 1 4 2 3 3 5 5 4 4 4 4 3 5 2 3 3 4 2 2 4 4 3 2 1 5 5 3 4 2 3 3 0 6 8 4 3 5 3 3 4 0 2 1 2 3 2 2 4 5 6 4 4 4 4 2 2 4 4 3 4 6
20 20 21 21 20 20 20 20 18 18 18 17 11 8 9 6 8 13 13 11 7 1 2 4 2 1 2 6 3 3 3 6 5 6 4 3 4 3 5 4 6 2 4 4 3 5 4 3 2 3 2 3 2 2 2 1 3 4 3 5 2 4 4 2 3 0 3 6 5 5 3 3 5 7 10 10 7 5 4 2 3 5 6 6 6 6 4
19 19 20 21 20 20 19 20 19 19 18 19 10 6 6 10 10 9 5 5 8 6 6 4 3 5 2 1 3 3 4 6 8 7 6 4 4 6 5 5 5 4 2 4 1 1 1 3 2 1 2 1 3 1 1 1 3 3 3 6 5 8 8 7 6 7 4 3 8 10 6 4 6 8 9 9 5 6 7 8 9 9 8 8 7 6 5
19 20 20 21 21 20 19 20 18 18 20 15 8 6 2 3 8 10 11 7 4 5 5 3 1 2 2 3 3 4 2 8 7 8 6 5 5 6 7 7 6 4 4 3 3 2 3 2 3 5 2 5 7 2 3 1 2 5 9 5 7 7 3 8 5 7 1 4 9 10 6 6 4 4 5 7 7 9 10 10 8 7 7 8 9 10 10
22 21 20 19 20 21 20 21 20 19 16 6 5 3 3 2 6 10 10 5 5 4 4 3 2 4 1 2 0 1 1 3 6 8 7 6 5 5 7 7 3 2 2 3 4 2 3 3 1 1 2 1 3 3 3 2 1 8 6 4 7 5 1 3 5 6 3 3 5 9 8 7 3 1 4 4 3 7 7 10 11 9 7 7 9 9 7
21 21 22 20 21 22 21 20 21 22 15 9 6 4 5 5 7 11 12 6 3 5 3 2 3 1 2 2 2 3 5 4 4 6 7 6 5 4 2 4 1 2 3 1 1 2 2 1 2 1 0 0 4 3 5 4 3 5 7 7 8 9 6 5 3 3 3 3 4 1 1 5 1 1 3 3 5 7 6 5 6 7 6 5 9 10 9
21 21 22 21 20 22 23 22 23 22 10 10 9 6 4 3 4 13 15 11 7 4 4 4 2 2 1 1 1 1 3 3 3 2 2 2 2 1 2 1 4 0 3 3 1 1 1 4 3 3 4 3 6 3 3 3 6 11 5 8 6 4 4 5 6 3 3 6 6 2 3 6 4 7 7 6 8 8 9 9 7 6 7 6 4 5 7
21 22 22 21 21 23 24 23 23 16 8 12 4 9 3 4 16 24 17 8 4 1 2 2 4 3 2 4 3 2 2 3 2 2 1 2 4 1 2 0 2 2 3 3 1 3 2 3 3 3 3 1 4 2 3 6 11 13 11 4 4 4 6 6 6 7 9 8 10 9 7 9 6 9 11 10 5 7 7 7 6 2 1 2 5 7 5
23 22 23 21 21 24 24 23 22 17 12 6 3 7 4 2 16 19 14 9 4 1 2 4 3 3 2 1 5 4 4 6 5 5 3 1 3 4 4 2 1 2 4 5 4 3 2 2 3 3 1 1 0 4 2 9 14 15 12 9 4 4 3 5 6 8 9 8 6 7 9 9 5 1 2 6 6 4 5 4 3 3 7 7 8 9 8
23 23 22 21 20 23 25 22 10 5 7 6 4 1 8 12 16 18 17 10 7 2 3 2 2 4 2 3 3 5 4 5 3 4 5 2 3 5 2 4 3 3 6 4 3 2 4 4 6 5 4 2 3 1 5 11 14 12 12 11 4 6 2 2 7 10 4 4 6 8 9 6 5 6 8 8 5 4 5 6 7 7 6 8 10 9 6
23 23 23 21 19 17 11 12 4 5 3 5 4 10 18 16 17 10 3 5 2 4 5 4 5 6 7 7 5 3 4 2 2 3 2 3 3 0 2 3 2 4 1 3 4 4 3 4 6 1 4 4 6 8 12 12 15 16 14 13 6 10 8 12 9 4 6 7 9 9 9 6 7 11 10 7 3 5 6 6 4 5 8 9 10 9 5
23 23 23 20 8 3 6 4 3 4 5 4 12 21 22 15 6 5 3 1 2 1 4 5 5 8 9 5 1 2 4 6 4 4 4 4 5 2 3 1 6 2 4 1 2 6 5 3 5 3 5 8 7 13 14 13 15 14 14 11 5 6 8 7 5 4 3 3 6 6 6 6 7 7 7 8 8 4 4 6 9 9 10 13 12 9 10
22 19 7 4 4 5 2 3 5 9 24 30 22 9 1 3 4 3 2 3 2 3 2 2 6 1 3 6 1 5 5 2 2 5 3 3 5 1 2 2 4 4 4 4 6 4 3 2 4 6 7 8 9 10 14 15 14 10 5 4 7 8 8 7 3 4 5 4 5 6 3 3 7 7 7 11 10 7 11 11 8 8 9 9 10 8 6
14 4 3 3 3 4 5 3 10 24 16 5 5 4 1 1 4 2 4 2 2 2 3 4 4 3 6 6 1 1 5 6 4 2 5 6 5 3 3 3 5 2 2 2 5 6 1 2 3 4 6 8 12 17 19 14 6 5 6 7 7 7 5 5 6 9 10 12 12 9 8 9 10 12 9 10 10 7 7 7 6 7 8 8 8 6 4
6 5 4 6 5 1 2 15 27 13 4 4 1 4 4 0 3 3 1 3 1 2 2 4 3 4 6 10 11 3 2 5 7 7 5 2 1 5 2 3 4 4 4 5 3 3 6 6 5 4 7 10 14 20 11 2 3 5 6 8 6 4 2 5 6 6 6 7 6 6 4 5 6 7 6 6 7 8 6 6 6 5 5 7 4 4 5
6 5 4 4 4 6 6 3 4 4 3 3 2 1 2 2 1 0 3 2 1 3 0 4 3 3 0 2 3 6 1 5 1 2 3 3 1 5 2 1 2 5 3 2 1 5 2 2 3 6 11 14 14 3 5 5 7 5 1 1 3 2 3 5 5 4 4 6 7 7 2 1 3 4 3 2 4 5 4 2 3 4 4 4 4 2 1
4 5 6 8 6 7 6 4 2 3 2 0 3 1 1 2 2 3 1 5 4 2 2 2 6 8 6 5 5 4 1 0 2 1 2 1 1 4 2 1 2 4 2 1 3 3 2 3 2 4 11 12 3 3 2 1 1 1 1 0 2 2 2 4 6 2 2 6 4 1 2 2 2 2 1 0 0 1 1 1 2 1 2 2 3 4 2
24 16 12 7 3 2 1 3 1 2 3 2 2 2 0 4 2 5 3 1 2 3 2 3 1 3 2 2 4 1 4 2 2 0 2 3 0 3 2 0 1 1 2 1 3 2 3 3 4 10 9 2 7 5 5 3 4 4 4 5 6 5 4 2 2 0 4 3 2 2 2 4 5 3 1 1 3 7 5 3 2 3 4 4 5 4 3
10 6 6 2 3 2 2 4 1 4 1 1 5 7 4 2 2 2 2 4 3 3 5 8 5 8 4 2 4 1 3 3 2 3 2 0 4 2 1 1 2 1 3 3 2 3 5 3 8 8 4 6 5 8 7 8 8 7 5 7 9 9 8 5 4 3 4 4 6 4 4 6 6 3 4 6 5 4 6 6 3 4 4 5 6 5 3
6 4 3 2 3 2 3 1 1 2 4 3 3 3 5 11 9 7 7 2 4 7 4 6 7 7 8 2 3 2 1 2 2 4 2 2 3 0 3 2 0 2 2 3 1 1 2 5 8 3 3 2 3 6 6 6 6 6 7 6 8 10 9 8 6 5 4 4 3 3 5 3 5 6 7 6 5 4 4 5 2 4 5 6 6 6 5
4 5 4 4 3 1 2 1 2 1 1 1 3 6 6 4 6 5 1 2 6 6 10 8 8 9 6 2 4 3 2 3 3 0 2 2 4 2 1 1 3 2 0 1 3 6 7 8 2 2 1 3 4 4 5 4 4 4 2 3 6 6 5 4 4 4 3 3 3 5 5 4 4 6 6 6 6 7 6 4 3 5 4 7 6 5 4
4 2 2 2 3 0 2 4 5 2 2 3 1 3 6 6 2 5 2 1 7 7 9 5 5 4 9 2 3 2 2 1 3 1 4 2 2 0 2 3 1 2 4 3 4 4 6 4 1 1 2 3 4 4 3 4 4 6 5 4 4 5 5 4 4 4 3 3 4 5 5 5 5 5 4 8 8 7 6 5 5 5 6 8 5 5 6
5 1 3 3 3 3 4 1 3 4 4 2 1 1 1 4 8 4 1 0 7 9 11 8 8 4 5 1 4 4 2 0 3 2 2 2 2 4 1 2 1 1 2 3 7 5 2 1 1 3 4 3 4 5 6 7 7 7 7 6 6 6 7 6 5 5 4 4 4 5 5 4 4 5 7 7 6 7 5 5 5 5 7 7 7 7 8
4 2 3 3 1 1 2 1 4 6 3 2 0 2 4 8 7 5 1 1 9 8 6 8 5 5 2 0 3 2 0 1 4 2 3 1 2 3 3 3 2 1 5 6 3 0 1 1 3 3 4 4 4 4 4 3 5 6 6 6 6 5 4 3 3 3 3 4 3 5 5 4 5 6 5 5 8 6 5 5 5 6 5 6 6 7 7
4 3 5 3 4 4 1 1 5 4 3 2 3 5 3 9 7 1 1 4 4 8 4 7 3 5 2 3 1 1 0 0 2 1 4 2 2 1 4 1 3 5 2 0 1 0 1 2 3 3 3 4 5 5 6 6 5 5 4 3 3 3 3 3 4 4 3 3 4 4 4 4 5 5 7 8 7 5 5 6 6 5 5 4 5 6 7
2 5 3 2 2 3 2 5 6 5 3 3 4 2 2 5 4 3 2 3 6 6 6 3 2 3 2 2 1 2 2 1 4 2 5 3 2 3 4 5 4 4 3 1 2 1 1 2 2 3 5 5 6 6 5 6 6 5 5 4 3 2 3 3 3 4 4 3 4 5 6 5 5 6 6 5 7 8 9 7 6 4 4 4 4 5 7
3 4 3 3 6 6 3 4 7 6 4 2 4 4 2 4 5 2 4 1 5 8 4 2 4 3 3 2 2 2 1 3 3 2 2 1 1 4 3 3 1 2 2 1 2 2 2 1 1 2 3 5 6 7 6 6 4 4 4 4 3 3 3 4 3 3 3 4 4 5 5 5 5 5 5 6 6 7 8 5 2 3 4 4 3 4 5
Wind_Direction
15 27 8 342 304 280 252 241 234 235 216 199 195 174 194 183 209 59 154 153 155 165 207 205 199 216 226 222 33 140 199 163 166 175 188 189 151 143 199 191 156 249 158 159 180 167 199 169 204 176 211 231 201 214 169 141 164 151 43 52 221 110 110 161 294 321 319 324 319 10 15 107 3 287 125 153 199 188 205 202 172 166 162 125 325 245 252
360 17 25 15 2 325 300 261 240 221 183 181 174 210 192 193 152 190 180 163 159 173 196 201 207 216 225 214 225 144 176 165 169 197 186 180 167 175 170 8 224 170 136 147 186 184 212 214 188 262 193 215 122 144 157 161 169 162 208 160 194 145 235 137 128 33 341 339 337 341 7 341 211 190 202 187 146 92 121 93 60 216 213 161 155 244 252
326 -0 38 41 57 43 36 32 337 228 201 195 175 220 177 93 31 55 180 186 167 192 192 202 202 210 212 206 216 205 213 215 193 171 185 173 165 135 221 182 144 177 184 178 107 196 203 95 222 140 191 194 70 108 166 181 172 187 281 34 171 195 167 157 181 193 185 200 197 204 208 209 202 166 132 195 175 156 119 218 162 219 210 151 206 249 259
317 336 -0 87 69 59 46 31 20 29 215 192 192 200 126 192 184 175 171 206 207 205 204 212 207 207 209 217 218 211 218 191 208 178 202 179 186 195 114 31 155 160 146 172 191 202 249 168 201 180 209 209 338 216 141 165 165 296 81 176 162 187 162 199 202 196 215 211 196 244 102 76 189 213 176 197 205 191 182 94 160 209 175 199 231 223 271
304 322 341 68 50 56 75 58 32 9 10 196 172 76 189 353 216 156 187 146 227 212 188 203 208 216 196 217 181 214 215 203 358 186 212 196 191 176 178 161 172 210 187 196 201 180 179 107 130 206 169 265 160 8 124 94 76 64 98 50 88 79 197 223 225 243 229 168 161 197 169 174 206 176 210 196 186 186 186 189 217 138 124 242 234 108 201
275 290 315 350 13 40 44 41 77 24 5 8 169 181 140 201 299 212 261 168 193 198 223 201 207 218 201 221 191 216 214 206 212 178 227 126 177 180 306 209 213 199 193 183 191 173 200 154 213 128 167 114 161 72 357 154 298 73 105 355 145 153 214 218 161 245 153 153 133 151 158 184 180 196 198 194 204 180 198 214 214 158 203 237 234 180 219
262 270 274 289 337 15 55 51 30 44 11 34 200 155 287 96 12 257 354 205 304 229 212 188 196 208 208 215 215 222 213 216 213 178 141 154 193 193 210 213 211 208 197 188 204 180 186 224 208 147 178 165 136 119 60 292 19 95 95 109 195 133 240 206 157 241 204 191 149 177 173 170 172 216 217 217 202 203 198 212 211 192 223 241 249 202 229
244 253 253 250 244 357 87 66 77 9 350 31 20 72 137 180 142 256 8 40 325 321 130 182 196 210 194 205 202 211 211 220 206 180 171 192 210 198 219 219 203 200 197 196 205 202 207 199 191 187 151 189 168 191 185 139 6 116 162 161 268 159 264 117 158 213 249 194 144 170 187 185 222 232 224 217 159 166 208 220 211 225 292 271 266 250 263
238 241 244 234 238 212 285 120 76 26 350 45 66 359 339 102 90 140 140 219 245 13 8 170 205 212 195 210 188 211 209 215 198 204 212 197 187 188 211 216 185 191 195 201 216 213 206 182 188 171 170 190 195 155 240 144 147 160 142 129 178 170 229 68 147 207 240 145 164 187 130 43 244 253 237 143 174 211 199 194 200 186 218 224 237 253 252
232 235 236 233 220 215 190 170 74 62 72 112 114 93 278 60 91 87 127 196 214 190 345 85 167 230 227 217 186 201 211 211 177 216 333 44 322 208 211 210 176 198 193 208 216 193 146 148 126 150 112 104 136 153 154 161 161 177 179 162 163 186 150 154 176 201 211 58 150 142 110 321 282 248 226 171 214 219 128 219 200 212 215 214 217 236 235
251 227 234 232 228 212 214 194 206 278 99 132 118 156 207 114 109 58 42 167 257 178 158 220 189 337 31 207 244 56 95 161 211 197 225 88 97 2 208 194 193 191 206 203 68 105 101 101 105 77 76 69 76 74 137 134 169 170 163 138 143 132 157 174 169 186 139 351 104 110 142 220 237 350 152 190 208 217 199 211 209 216 192 214 209 227 138
279 241 224 231 221 213 201 198 214 272 80 159 121 137 202 129 90 80 115 155 172 145 188 203 182 164 142 231 201 203 201 202 231 348 145 34 300 338 163 182 186 207 331 131 110 100 100 58 53 58 63 65 68 54 96 143 160 72 155 139 154 160 166 169 149 158 165 114 105 156 214 236 19 330 351 359 260 221 213 223 213 211 216 229 227 128 182
277 273 241 228 225 218 204 190 200 173 120 144 122 143 206 165 114 123 137 133 166 164 172 230 149 145 162 162 189 209 214 22 40 59 85 126 3 13 7 332 153 152 148 133 107 81 79 102 71 93 68 62 44 54 39 74 69 13 115 140 160 173 169 135 105 116 62 103 180 209 234 278 307 308 338 345 83 62 87 287 248 222 195 205 213 211 219
264 271 264 238 227 221 216 196 184 181 183 176 113 150 139 158 116 117 146 126 216 161 148 81 140 183 182 195 161 174 142 134 17 66 172 31 160 4 13 36 347 156 163 105 75 101 88 90 145 118 133 62 34 113 125 66 40 26 157 4 238 176 145 161 177 172 172 188 194 230 358 318 232 11 240 170 157 163 161 217 251 219 197 168 192 222 234
262 263 266 257 237 230 217 205 184 176 187 145 114 105 139 179 126 134 188 88 192 168 195 197 191 187 169 174 155 111 107 140 126 14 26 7 71 2 324 323 339 344 320 60 62 42 144 120 108 127 46 139 178 193 75 179 89 15 12 330 6 233 177 208 177 215 166 156 211 330 279 247 256 214 231 162 186 163 167 140 271 334 174 176 180 207 223
259 257 255 253 247 230 217 213 202 178 170 144 114 140 151 152 108 99 120 146 148 233 222 192 125 143 153 183 176 166 163 150 159 97 87 89 44 69 1 5 348 9 19 67 63 111 151 128 198 151 188 176 164 91 248 118 10 38 11 345 106 38 62 161 199 191 119 190 219 217 226 248 142 206 184 177 131 122 102 72 284 246 182 198 175 197 215
259 252 251 249 251 246 225 213 204 188 170 154 142 144 188 201 121 133 115 61 175 220 12 97 120 113 107 86 90 156 150 165 151 150 182 191 164 107 28 -0 349 64 322 96 240 89 83 70 66 96 355 136 124 193 75 93 140 341 20 49 81 103 139 132 260 200 199 190 220 233 221 254 258 199 223 198 171 117 78 317 268 246 199 172 168 193 207
259 253 248 246 243 247 238 219 207 196 178 167 133 160 181 173 170 110 76 127 162 255 205 225 135 138 171 171 154 157 89 95 67 44 74 113 113 158 167 129 94 299 236 159 186 152 182 152 173 189 188 226 151 108 194 158 159 188 165 160 139 162 266 205 212 213 213 212 245 352 297 271 254 193 199 185 187 87 125 223 229 200 178 184 177 195 179
259 257 251 244 240 237 240 233 214 202 186 167 113 77 246 195 199 114 114 111 116 209 212 291 322 130 128 62 86 142 146 156 153 121 155 104 232 167 125 199 129 160 174 180 157 185 175 226 31 132 153 254 193 190 138 130 189 72 130 89 54 7 91 323 25 232 222 223 229 240 267 213 166 298 148 196 110 190 199 239 178 145 188 197 188 170 163
256 255 253 249 244 237 233 236 223 211 194 165 148 156 202 148 211 157 139 150 142 152 172 189 177 166 191 138 150 119 145 49 272 138 183 163 100 119 84 88 304 79 49 131 196 216 175 197 181 140 85 169 212 145 31 262 61 157 171 202 159 179 147 197 193 211 48 95 239 268 244 178 125 126 57 279 142 239 166 138 19 143 166 163 196 187 186
251 251 250 248 245 239 233 228 229 219 200 175 159 124 109 180 191 19 98 128 132 114 283 238 68 195 147 167 186 163 154 178 174 162 198 125 183 158 161 208 170 149 181 166 187 191 171 188 157 175 221 129 203 93 187 139 320 277 125 186 159 206 103 220 216 184 180 181 206 211 218 145 171 146 170 204 200 177 151 132 152 128 149 171 177 213 185
249 250 248 246 244 240 235 232 227 226 215 186 169 140 126 137 117 97 110 85 104 152 207 179 180 202 234 211 172 156 156 155 179 146 126 136 234 199 210 70 147 149 183 112 63 29 -0 146 57 101 162 203 10 177 204 120 207 202 351 108 200 210 180 188 190 201 163 196 191 157 190 160 185 179 122 193 157 151 170 142 162 156 228 186 174 196 193
249 248 249 245 243 242 238 233 225 223 217 203 173 174 172 150 157 186 115 69 28 48 57 39 88 52 171 265 212 212 129 141 119 90 123 122 200 250 155 154 181 137 50 87 174 147 154 138 191 157 55 231 167 165 1 133 204 164 172 241 190 357 148 216 91 273 180 278 148 132 63 208 202 257 252 122 139 1 147 140 135 220 173 168 184 199 186
251 244 245 244 240 238 235 233 227 222 220 211 174 179 181 161 156 128 73 69 107 112 354 14 82 252 192 234 191 95 99 99 179 186 188 122 156 174 27 279 176 53 326 218 180 131 179 101 203 104 158 222 93 132 173 238 215 196 77 271 241 217 133 111 165 268 88 266 75 147 169 172 200 216 168 43 125 171 157 166 184 180 172 186 223 171 187
249 247 242 240 241 236 233 232 229 224 218 217 191 143 93 82 163 157 150 148 169 159 192 206 221 232 207 188 81 97 224 181 120 128 114 115 138 147 181 188 145 157 203 162 147 82 50 121 195 103 176 251 126 225 295 129 277 158 130 263 44 309 168 76 222 122 180 240 124 197 301 245 250 231 202 238 228 203 207 217 98 132 168 182 189 131 133
248 248 244 239 239 235 234 231 228 225 218 206 175 152 169 169 171 135 74 61 79 101 177 229 239 9 33 94 198 203 179 136 155 136 164 172 168 162 146 120 48 41 99 91 58 115 127 57 92 144 156 265 83 154 222 208 150 232 165 215 184 189 118 198 187 164 277 37 314 311 358 3 270 246 244 239 210 184 215 226 215 146 157 187 182 202 177
247 244 244 239 235 236 229 228 224 222 215 208 186 170 168 150 167 162 163 162 131 3 185 226 188 142 222 207 220 91 123 160 154 158 132 125 120 100 109 127 113 102 104 65 26 112 56 109 118 195 185 221 106 152 134 58 128 156 193 260 121 98 210 188 79 99 222 183 196 157 104 255 241 226 227 230 219 177 193 161 197 207 201 194 186 225 221
246 242 243 239 232 231 234 228 224 219 220 216 189 170 158 158 179 190 190 205 173 168 158 157 161 221 149 300 248 160 143 138 153 154 159 154 135 135 142 145 130 128 147 124 102 77 123 155 236 219 73 281 71 355 97 302 49 23 259 233 185 172 205 147 182 188 229 209 182 192 190 199 210 199 213 221 198 163 191 209 214 219 210 192 184 205 230
245 240 235 237 236 226 226 227 218 219 215 206 106 116 75 176 175 191 187 188 94 95 89 142 35 28 147 239 78 101 126 141 149 154 155 151 149 150 148 161 156 154 84 58 91 98 143 201 129 136 173 213 98 263 76 129 198 215 231 179 168 230 163 181 183 104 172 195 172 193 173 195 241 221 204 217 199 181 204 224 223 219 200 190 197 206 204
243 241 236 231 233 229 223 223 216 211 210 126 103 88 148 224 205 191 192 168 144 114 113 109 93 243 291 44 80 153 71 131 143 141 142 143 149 157 158 147 131 114 109 144 168 132 207 130 214 272 282 321 129 194 103 209 204 246 250 176 203 233 199 134 137 132 199 209 184 194 199 220 223 146 196 218 192 177 198 223 222 220 216 186 198 224 223
243 240 237 231 227 227 221 218 218 208 175 140 142 139 166 202 194 197 174 154 139 112 149 137 195 216 33 262 115 167 152 130 135 145 156 146 148 142 152 92 68 146 104 43 78 209 123 74 152 244 22 15 114 116 175 152 236 290 250 166 191 218 199 178 205 165 150 140 182 181 227 239 237 43 311 244 212 190 206 236 239 218 212 181 208 214 223
243 237 234 229 226 223 221 212 213 208 170 152 183 192 188 214 156 145 164 169 133 120 137 109 215 147 213 187 63 323 118 129 109 94 81 132 94 144 86 98 170 127 141 147 207 73 238 205 108 193 131 188 96 100 96 122 221 246 236 125 214 197 163 172 195 205 147 161 120 80 267 266 204 185 224 223 195 199 195 216 221 213 205 204 225 228 227
240 237 231 227 224 222 218 214 211 195 161 189 101 32 2 27 152 151 169 128 101 180 176 152 164 196 174 219 116 337 151 81 45 100 160 267 156 154 98 329 72 54 269 112 262 170 224 128 163 130 236 73 103 153 146 205 234 246 251 202 170 177 187 193 178 183 190 194 173 178 212 225 231 217 224 241 204 184 203 220 235 172 132 214 241 247 254
235 232 229 225 222 223 219 209 210 190 145 128 226 220 271 37 162 154 141 138 123 159 110 139 172 142 191 343 69 259 154 140 159 146 142 297 148 94 178 97 277 147 283 152 254 77 317 96 129 185 62 17 146 86 214 248 241 251 259 257 170 195 177 171 177 197 209 201 210 210 216 224 233 188 219 245 250 195 194 201 154 177 224 222 236 233 233
231 225 221 221 216 220 221 211 184 145 163 182 207 224 148 154 157 155 152 155 139 187 123 238 150 129 98 19 138 243 144 107 158 197 134 199 98 140 192 91 259 180 259 105 32 152 179 200 174 105 213 168 92 177 231 238 245 249 252 257 208 139 143 253 246 217 176 156 195 227 242 247 255 259 245 240 230 168 169 205 204 194 216 235 232 240 227
228 221 220 216 216 215 222 208 139 125 68 194 195 154 142 149 148 140 96 15 102 153 152 200 162 183 171 189 193 252 128 71 178 82 145 145 40 180 117 135 169 238 99 84 170 210 191 212 99 215 226 161 206 198 224 219 233 239 240 243 210 161 204 217 240 99 158 180 195 214 229 237 225 238 248 255 224 173 194 197 208 194 217 235 242 238 227
221 218 212 212 201 177 198 175 124 178 196 127 129 126 116 100 54 77 17 7 342 62 139 154 158 204 187 198 91 284 125 160 175 101 169 128 153 163 101 200 187 196 78 107 192 206 219 118 100 155 211 205 218 222 225 224 230 233 240 239 220 199 220 240 228 125 131 187 218 227 227 228 244 256 261 260 245 181 167 210 206 191 212 228 238 239 230
216 208 188 125 108 171 86 204 195 156 124 122 112 81 55 106 143 141 149 148 253 81 315 94 182 144 15 87 183 233 108 236 118 135 143 160 119 291 166 145 220 187 184 188 217 147 83 98 169 190 230 233 240 233 232 232 234 234 225 206 218 216 215 226 184 144 181 244 281 252 247 260 255 249 230 248 247 210 212 222 219 210 220 231 235 237 247
201 162 128 136 127 180 182 193 149 130 113 102 41 92 79 174 121 150 195 152 119 147 236 129 178 143 128 92 159 14 140 174 125 187 151 215 113 257 139 149 258 114 285 174 257 138 112 206 172 196 235 232 237 242 239 233 229 215 197 222 222 223 208 206 181 188 198 215 230 231 191 204 224 243 225 232 252 242 226 225 225 218 216 231 243 248 252
115 173 153 142 167 202 64 139 134 114 93 75 342 107 126 327 128 191 152 83 67 282 135 155 170 151 184 159 154 198 215 134 156 172 159 206 38 154 242 92 263 135 201 199 230 108 133 182 183 168 237 236 236 240 246 180 202 235 210 231 237 244 199 206 218 220 221 244 252 260 237 215 220 232 234 215 225 247 250 230 232 228 212 228 243 238 240
157 107 121 135 144 127 110 88 4 60 80 95 63 27 102 49 325 191 104 88 135 221 37 142 89 82 87 84 108 147 274 74 2 81 105 155 244 86 49 175 230 84 278 177 285 67 83 63 192 194 231 231 238 252 94 162 208 232 269 287 280 260 215 227 236 205 194 240 257 260 292 191 218 239 261 247 220 233 250 235 214 228 220 227 228 223 70
169 124 122 102 95 102 97 40 40 81 54 60 124 115 102 126 65 34 168 149 209 163 253 152 161 149 193 161 164 126 44 128 109 85 110 93 262 122 218 28 3 119 190 197 102 66 93 132 221 250 242 246 275 68 92 158 346 32 354 304 261 259 236 219 234 244 194 229 260 322 59 83 77 61 53 20 124 148 126 121 152 63 99 72 71 75 64
102 107 106 99 87 59 118 91 298 122 133 115 98 79 24 107 174 147 208 276 316 101 201 28 158 79 10 75 47 15 153 174 113 133 87 154 84 54 103 50 139 61 214 32 71 85 104 181 215 243 245 20 42 59 39 24 347 344 346 11 1 359 3 352 310 212 29 44 62 80 87 92 79 59 9 52 110 86 48 39 111 126 108 97 78 74 76
107 88 79 34 103 267 111 159 170 69 27 128 138 152 173 125 277 73 117 214 199 136 191 137 199 141 135 326 120 143 35 6 102 86 48 0 82 154 108 134 197 219 69 41 75 134 206 234 214 229 68 56 30 22 1 358 358 341 345 4 8 10 7 11 34 53 33 43 60 71 80 84 93 58 40 30 14 126 115 68 64 92 97 96 82 66 48
110 50 78 71 85 208 93 304 23 121 167 210 149 153 158 173 178 172 177 200 107 184 137 93 132 118 128 222 54 -0 97 175 318 100 203 121 56 138 118 216 180 42 104 167 143 334 357 266 257 278 349 60 34 352 354 340 356 341 307 320 8 7 10 22 16 42 41 32 25 38 62 53 69 63 47 43 38 53 91 97 83 87 85 91 91 75 43
89 140 120 111 111 11 119 129 88 49 286 158 203 189 144 173 148 181 224 86 98 110 123 141 114 105 89 308 124 171 96 103 74 185 118 61 111 234 212 66 73 83 303 97 143 203 217 231 226 108 39 307 320 325 326 324 332 328 5 17 340 351 358 13 25 50 46 37 31 60 61 49 66 75 64 48 48 49 52 56 56 88 103 90 79 80 49
78 23 90 98 99 159 69 143 212 199 148 159 204 174 150 141 107 104 157 92 121 134 105 86 102 128 129 156 71 15 45 57 117 231 79 83 160 230 28 101 197 182 154 215 211 233 245 264 41 33 316 324 320 321 323 333 355 10 7 354 354 359 2 18 27 44 29 58 73 71 66 69 73 76 85 67 44 32 28 36 42 52 82 97 94 86 77
95 122 79 101 148 142 158 230 111 90 16 108 207 27 109 137 113 84 333 191 133 128 126 117 102 86 47 296 73 137 147 172 83 310 140 169 51 42 98 66 249 236 175 174 221 213 196 6 345 332 328 330 327 333 346 353 355 4 2 355 351 356 5 14 25 19 22 52 71 84 86 82 82 83 85 92 79 42 37 40 55 67 81 83 80 79 84
87 89 96 115 78 86 68 108 126 72 351 335 230 124 127 100 104 115 201 217 132 138 141 120 153 101 111 106 101 126 95 221 106 195 75 38 124 189 158 195 172 226 257 176 213 116 154 337 321 313 319 340 342 358 335 345 348 351 354 348 340 334 346 22 28 25 38 61 78 93 94 94 98 99 96 87 82 54 30 41 58 59 61 82 91 92 87
67 47 36 62 70 13 294 28 71 68 335 356 49 74 63 100 105 115 265 100 148 125 116 83 79 90 173 111 101 63 128 251 145 91 77 194 180 147 75 94 231 180 238 261 156 348 334 341 337 334 337 340 336 353 345 341 350 350 341 342 341 357 359 18 36 48 53 73 87 101 107 105 99 97 105 103 110 115 79 58 52 61 55 55 84 90 91
45 83 99 318 96 158 147 138 154 141 115 96 95 56 43 114 121 157 303 147 143 90 57 112 157 109 93 48 103 106 244 131 76 147 152 189 185 132 177 189 232 194 144 75 102 93 36 -0 358 323 326 333 331 334 336 332 331 325 338 342 348 22 23 43 52 63 63 55 70 88 85 88 98 108 112 116 113 102 83 61 42 46 61 57 58 81 87
50 61 34 28 40 34 38 88 55 57 69 53 52 339 1 64 345 301 309 221 138 120 157 194 90 99 84 147 193 172 39 48 174 112 70 264 99 140 214 200 129 63 53 56 74 56 30 28 29 328 311 314 324 326 322 319 325 340 356 360 12 29 39 48 51 53 65 71 70 93 101 110 121 126 133 118 110 95 90 86 43 41 53 58 46 45 71